Estación municipal de Susqueda - St. Martí Sacalm (La Selva, )

Consulta los datos en tiempo real de la estación municipal de Susqueda - St. Martí Sacalm





Hora UTC 20:45
Temperatura 25.6 ºC
Humedad 46.3 %
Presión 1025.2 hPa
Pluja 0.0 mm
Velocidad viento 9.9 km/h
Dirección viento SW
Radiación solar 0.1 W/m²

Datos diarios 2026-09-05



Hora UTC (invierno +1h; verano +2h)
Temperatura (ºC) Humedad (%) Presión (hPa) Velocidad viento (km/h) Precipitación (mm) Radiación solar (W/m²)
Hora UTC Aire Humedad Presión Vel. Dir. Vel. Max Dir. Intent. máx 5 min. Rad. Sol.
00:05 26.1 50.4 1024.2 2.1 NE 2.1 NNE 0.0 0.1
00:10 26.5 49.7 1024.2 3.6 NNE 5.7 N 0.0 0.1
00:15 26.6 50.5 1024.2 0.1 N 2.1 N 0.0 0.1
00:20 26.2 53.4 1024.2 0.0 NNE 0.0 SW 0.0 0.1
00:25 26.1 53.7 1024.2 0.0 NNE 0.0 N 0.0 0.1
00:30 26.1 51.7 1024.1 0.2 NNE 3.5 NNE 0.0 0.1
00:35 26.5 50.6 1024.1 0.9 NE 4.2 NE 0.0 0.2
00:40 26.3 53.7 1024.1 0.0 NNE 0.0 ENE 0.0 0.1
00:45 25.8 56.1 1024.1 0.0 NNE 0.0 SW 0.0 0.1
00:50 25.8 55.9 1024.1 0.0 NNE 0.0 SSW 0.0 0.1
00:55 25.6 56.6 1024.1 0.0 NNE 0.0 SW 0.0 0.1
01:00 25.4 57.3 1024.1 5.1 SW 6.7 SW 0.0 0.1
01:05 25.2 57.8 1024.1 4.0 SW 5.3 SW 0.0 0.1
01:10 25.1 58.2 1024.1 5.5 SW 7.1 SW 0.0 0.1
01:15 25.1 58.1 1024.1 5.1 SW 6.4 SW 0.0 0.1
01:20 25.0 58.0 1024.1 5.4 SW 6.0 SW 0.0 0.1
01:25 25.1 56.7 1024.1 4.5 SW 7.1 SW 0.0 0.1
01:30 25.2 56.0 1024.1 1.2 SW 8.5 SW 0.0 0.1
01:35 24.6 58.5 1024.1 7.9 SW 8.8 SW 0.0 0.1
01:40 24.5 59.3 1024.1 7.3 SW 8.8 SW 0.0 0.1
01:45 24.4 59.8 1024.0 0.0 NNE 0.0 SW 0.0 0.1
01:50 24.6 59.3 1024.1 1.3 SSW 8.5 SSW 0.0 0.1
01:55 24.6 59.3 1024.1 7.9 SW 9.2 SSW 0.0 0.1
02:00 24.5 59.6 1024.1 3.5 SW 8.1 SW 0.0 0.1
02:05 24.6 59.6 1024.1 0.0 NNE 0.0 SW 0.0 0.1
02:10 24.7 59.5 1024.1 6.3 SW 8.5 SW 0.0 0.1
02:15 24.6 59.9 1024.0 7.8 SW 9.5 SW 0.0 0.1
02:20 24.3 60.6 1024.0 7.5 SW 8.8 SSW 0.0 0.1
02:25 24.1 61.3 1024.0 8.4 SSW 9.9 SSW 0.0 0.1
02:30 24.0 61.0 1024.0 8.7 SSW 10.3 SW 0.0 0.1
02:35 24.2 59.1 1024.0 8.6 SW 10.3 SSW 0.0 0.1
02:40 24.2 58.5 1023.9 8.1 SW 10.3 SW 0.0 0.1
02:45 24.0 58.7 1023.9 8.6 SW 11.3 SW 0.0 0.1
02:50 24.0 58.3 1023.9 10.2 SW 12.4 SW 0.0 0.1
02:55 24.0 57.9 1023.9 10.6 SW 12.7 SW 0.0 0.1
03:00 24.1 57.6 1023.9 10.8 SW 12.7 SW 0.0 0.1
03:05 24.0 57.8 1023.9 10.3 SW 13.4 SW 0.0 0.1
03:10 24.0 59.0 1023.9 10.4 SW 12.4 SSW 0.0 0.1
03:15 24.0 59.6 1023.9 11.2 SW 13.1 SW 0.0 0.1
03:20 23.9 59.8 1023.9 10.6 SW 12.7 SW 0.0 0.1
03:25 23.8 59.6 1023.9 10.4 SSW 14.1 SW 0.0 0.1
03:30 24.0 58.5 1023.9 10.8 SSW 14.5 SSW 0.0 0.1
03:35 23.9 58.3 1023.9 10.7 SSW 14.8 SSW 0.0 0.1
03:40 23.9 58.8 1023.9 10.4 SSW 13.4 SSW 0.0 0.1
03:45 23.8 58.3 1023.9 10.4 SSW 13.1 SSW 0.0 0.1
03:50 23.9 58.0 1023.8 10.5 SSW 13.1 SSW 0.0 0.2
03:55 23.8 57.7 1023.8 12.0 SW 16.6 SW 0.0 0.1
04:00 23.9 56.9 1023.8 12.5 SW 15.2 SW 0.0 0.1
04:05 23.9 56.6 1023.8 12.8 SW 15.5 SW 0.0 0.1
04:10 23.7 57.2 1023.8 12.2 SW 14.1 SW 0.0 0.1
04:15 23.7 57.4 1023.7 12.2 SW 14.5 SW 0.0 0.1
04:20 23.7 58.2 1023.7 12.5 SW 14.5 SW 0.0 0.1
04:25 23.6 58.7 1023.7 12.8 SW 14.8 SW 0.0 0.1
04:30 23.6 59.3 1023.7 11.2 SSW 13.1 SSW 0.0 0.1
04:35 23.4 60.1 1023.8 11.0 SSW 14.8 SSW 0.0 0.1
04:40 23.7 58.9 1023.9 11.3 SSW 15.2 SSW 0.0 0.1
04:45 23.8 58.6 1023.9 11.9 SSW 16.6 SSW 0.0 0.1
04:50 23.7 58.9 1023.9 11.4 SW 15.2 SW 0.0 0.1
04:55 23.7 58.4 1023.9 9.9 SW 13.1 SSW 0.0 0.2
05:00 23.6 59.1 1024.0 9.3 SSW 12.0 SW 0.0 0.4
05:05 23.5 59.8 1024.0 10.5 SW 14.8 SW 0.0 0.8
05:10 23.6 59.5 1024.1 12.0 SW 14.5 SSW 0.0 1.6
05:15 23.6 59.5 1024.1 11.5 SW 15.9 SSW 0.0 2.6
05:20 23.7 58.9 1024.1 11.5 SW 14.1 SSW 0.0 4.0
05:25 23.5 59.7 1024.1 12.4 SW 17.7 SW 0.0 6.2
05:30 23.6 59.2 1024.1 12.8 SSW 17.3 SW 0.0 9.1
05:35 23.5 60.5 1024.2 11.1 SW 15.5 SW 0.0 15.3
05:40 23.3 61.0 1024.3 9.9 SSW 13.1 SSW 0.0 23.9
05:45 23.3 61.3 1024.2 9.0 SW 11.3 SSW 0.0 33.6
05:50 23.5 61.3 1024.3 11.1 SW 14.5 SW 0.0 37.9
05:55 23.9 60.2 1024.3 10.5 SW 13.8 SW 0.0 48.3
06:00 23.9 60.4 1024.4 9.0 SW 13.8 SW 0.0 48.1
06:05 23.9 60.7 1024.4 8.2 SSW 10.6 SSW 0.0 54.2
06:10 23.8 60.4 1024.4 9.2 SSW 11.7 SSW 0.0 51.1
06:15 24.0 59.4 1024.4 9.1 SSW 13.4 SSW 0.0 57.7
06:20 24.4 57.7 1024.4 11.5 SSW 13.4 SSW 0.0 58.7
06:25 24.5 57.2 1024.5 11.0 SSW 14.1 SSW 0.0 58.3
06:30 24.4 57.4 1024.5 10.9 SSW 15.2 SW 0.0 75.9
06:35 24.5 56.8 1024.6 11.0 SSW 14.1 SSW 0.0 103.2
06:40 24.5 56.7 1024.6 11.4 SSW 13.8 SSW 0.0 81.0
06:45 24.7 55.2 1024.6 11.4 SSW 15.5 SSW 0.0 117.5
06:50 24.9 53.3 1024.7 12.5 SW 15.9 SW 0.0 112.3
06:55 25.0 53.1 1024.8 11.4 SW 13.8 SW 0.0 191.1
07:00 25.0 52.8 1024.8 12.8 SW 15.9 SW 0.0 225.5
07:05 25.4 48.5 1024.8 13.8 SW 16.6 SW 0.0 247.0
07:10 25.8 46.4 1024.8 14.4 SW 17.0 SW 0.0 275.0
07:15 26.0 45.2 1024.8 15.6 SW 19.1 SSW 0.0 290.3
07:20 26.4 43.1 1024.8 15.3 SW 22.2 SSW 0.0 313.4
07:25 26.6 44.7 1024.9 11.9 SW 21.5 SW 0.0 327.3
07:30 26.6 45.8 1025.0 11.2 SW 14.5 SSW 0.0 337.9
07:35 26.8 44.3 1025.0 11.6 SW 15.9 SSW 0.0 352.0
07:40 26.9 44.1 1025.0 10.8 SW 15.2 SSW 0.0 374.5
07:45 27.1 42.5 1025.0 11.3 SW 14.8 SW 0.0 390.4
07:50 27.3 42.2 1025.1 9.8 SW 13.4 SW 0.0 404.4
07:55 27.7 39.5 1025.1 10.4 SW 14.8 SSW 0.0 418.9
08:00 27.7 39.8 1025.1 10.1 SSW 14.1 SW 0.0 434.7
08:05 27.8 39.2 1025.1 9.8 SW 13.8 SW 0.0 450.0
08:10 27.8 39.3 1025.2 10.7 SW 14.1 SW 0.0 464.1
08:15 27.9 38.4 1025.2 10.8 SW 15.2 SW 0.0 476.4
08:20 28.1 37.7 1025.2 10.6 SSW 14.1 SSW 0.0 489.4
08:25 28.3 37.3 1025.2 10.9 SW 15.9 SW 0.0 502.6
08:30 28.5 36.7 1025.2 10.5 SW 16.2 SW 0.0 516.6
08:35 28.8 36.0 1025.3 9.9 SW 14.8 SSW 0.0 530.0
08:40 28.9 35.6 1025.3 9.9 SW 13.1 SW 0.0 542.8
08:45 29.1 35.4 1025.3 9.5 SW 13.8 SSW 0.0 555.4
08:50 29.1 35.0 1025.4 11.4 SW 14.5 SSW 0.0 568.6
08:55 29.2 34.9 1025.4 11.0 SW 15.5 SW 0.0 566.0
09:00 29.2 34.8 1025.5 10.3 SW 13.4 WSW 0.0 575.1
09:05 29.6 34.8 1025.5 9.9 SW 14.5 SW 0.0 597.7
09:10 29.6 34.7 1025.5 10.6 SW 14.1 SW 0.0 613.5
09:15 29.7 34.8 1025.6 10.2 SW 14.8 WSW 0.0 626.3
09:20 29.9 34.8 1025.6 10.1 SW 14.5 WSW 0.0 638.5
09:25 29.9 35.3 1025.6 8.3 SW 14.5 SW 0.0 649.5
09:30 29.8 35.9 1025.6 10.3 SSW 16.6 SSW 0.0 629.9
09:35 29.8 37.5 1025.6 9.2 SSW 16.2 SW 0.0 604.5
09:40 30.1 36.9 1025.6 7.2 S 14.5 S 0.0 676.6
09:45 30.2 37.2 1025.6 8.3 SSW 15.5 SSE 0.0 685.2
09:50 30.5 37.0 1025.6 7.2 S 17.3 SW 0.0 693.5
09:55 30.4 36.1 1025.6 8.6 S 17.7 SSE 0.0 702.7
10:00 30.7 36.1 1025.6 12.9 SSE 21.9 SSE 0.0 710.0
10:05 30.7 35.7 1025.6 11.7 SSE 18.0 SSE 0.0 718.3
10:10 30.7 35.5 1025.6 12.7 SSE 20.8 SE 0.0 726.8
10:15 30.7 34.5 1025.6 10.6 SSE 19.1 SSE 0.0 732.9
10:20 31.1 34.3 1025.6 11.7 SSE 19.1 SSE 0.0 740.3
10:25 31.6 33.5 1025.6 11.4 SSE 20.5 SSE 0.0 747.0
10:30 31.7 33.4 1025.6 7.7 SSE 15.9 SSE 0.0 752.3
10:35 31.8 33.4 1025.5 12.6 SSE 21.9 SSE 0.0 757.5
10:40 31.5 33.4 1025.5 10.0 SSE 19.1 SSE 0.0 762.3
10:45 31.8 33.2 1025.4 12.3 SSE 21.5 SSE 0.0 766.6
10:50 31.7 33.3 1025.5 9.7 S 18.4 SSE 0.0 770.8
10:55 31.8 33.0 1025.4 10.2 SSE 19.4 S 0.0 774.1
11:00 32.0 32.4 1025.4 13.1 SSE 23.7 SSE 0.0 771.9
11:05 31.9 32.4 1025.4 9.9 SE 16.6 SSE 0.0 777.9
11:10 32.2 32.6 1025.4 8.3 SSE 17.3 SSE 0.0 782.7
11:15 32.4 32.2 1025.4 10.2 SSE 20.1 SSE 0.0 786.7
11:20 32.5 32.4 1025.3 9.3 SSE 20.1 SSW 0.0 785.1
11:25 32.6 32.5 1025.3 8.9 S 19.8 SW 0.0 788.9
11:30 32.5 32.1 1025.3 8.7 SSE 16.2 SSE 0.0 791.3
11:35 32.8 31.8 1025.3 8.7 SSE 17.7 S 0.0 788.7
11:40 32.9 31.7 1025.4 2.9 SE 9.9 SSE 0.0 774.1
11:45 33.1 31.3 1025.3 6.4 S 17.0 ESE 0.0 790.1
11:50 33.3 30.8 1025.3 7.6 SE 16.2 SSE 0.0 790.0
11:55 33.1 31.2 1025.3 8.0 ESE 22.2 ESE 0.0 790.6
12:00 33.0 31.4 1025.3 4.3 E 11.7 E 0.0 788.0
12:05 33.0 31.4 1025.2 3.5 ENE 12.7 E 0.0 785.2
12:10 33.1 31.1 1025.2 5.8 ENE 17.7 NE 0.0 782.9
12:15 32.6 31.8 1025.2 4.3 E 14.1 NNE 0.0 780.5
12:20 32.9 31.2 1025.1 9.7 ENE 18.7 NNE 0.0 778.6
12:25 33.0 31.2 1025.0 7.8 ENE 18.0 ENE 0.0 772.3
12:30 33.5 30.6 1025.1 6.7 ENE 17.0 ENE 0.0 741.4
12:35 33.5 30.4 1025.1 3.7 SE 15.9 E 0.0 763.7
12:40 33.0 31.1 1025.0 5.8 NNE 24.4 ESE 0.0 760.3
12:45 33.5 30.7 1025.0 6.4 ESE 16.2 S 0.0 756.1
12:50 33.8 30.5 1025.0 9.0 E 27.2 ENE 0.0 751.7
12:55 33.5 30.8 1024.9 6.7 SE 22.6 ESE 0.0 747.0
13:00 33.4 31.3 1024.9 5.1 S 14.1 SW 0.0 741.7
13:05 33.1 31.5 1024.9 9.8 SSE 19.4 SSE 0.0 734.8
13:10 33.0 31.9 1024.8 11.6 ESE 20.1 SE 0.0 718.8
13:15 33.0 32.0 1024.8 4.7 E 18.7 SE 0.0 707.3
13:20 33.5 31.7 1024.8 3.8 SW 15.2 SSE 0.0 710.3
13:25 33.4 32.0 1024.8 2.8 ENE 13.4 E 0.0 704.8
13:30 32.8 33.4 1024.8 5.7 NNE 17.7 NNE 0.0 697.6
13:35 32.5 34.2 1024.7 5.4 NE 14.1 E 0.0 692.0
13:40 33.1 34.0 1024.7 4.3 NE 11.0 ESE 0.0 685.9
13:45 32.6 35.7 1024.7 5.1 NE 17.3 NNE 0.0 676.3
13:50 33.0 35.6 1024.6 6.5 ENE 19.1 ENE 0.0 668.4
13:55 33.0 36.4 1024.6 9.8 ENE 21.2 ENE 0.0 657.1
14:00 32.8 36.6 1024.6 8.7 E 20.1 NNE 0.0 644.9
14:05 32.8 36.7 1024.6 7.0 NE 17.7 N 0.0 634.0
14:10 32.2 38.3 1024.6 10.2 NE 20.1 ENE 0.0 539.1
14:15 31.6 39.0 1024.6 12.7 NE 21.9 NE 0.0 615.9
14:20 31.9 38.4 1024.6 11.0 ENE 20.8 E 0.0 605.1
14:25 32.4 37.2 1024.7 7.3 ENE 15.5 E 0.0 593.2
14:30 32.9 35.8 1024.7 6.6 E 13.8 E 0.0 580.3
14:35 32.7 36.2 1024.7 4.5 ENE 10.3 NE 0.0 568.6
14:40 32.1 37.1 1024.7 3.8 NNE 9.9 NNE 0.0 557.0
14:45 31.5 38.1 1024.7 4.9 N 12.7 NNE 0.0 547.4
14:50 31.7 37.7 1024.6 4.6 NNE 11.0 NNE 0.0 538.9
14:55 31.8 37.2 1024.6 7.5 NNE 15.9 NE 0.0 525.5
15:00 31.6 37.3 1024.6 6.5 NNE 14.8 NNE 0.0 510.2
15:05 31.2 37.7 1024.6 8.6 N 14.1 N 0.0 502.5
15:10 30.9 38.1 1024.6 9.7 NNE 15.5 NNE 0.0 498.8
15:15 30.5 38.4 1024.6 10.1 NNE 15.2 NNE 0.0 498.5
15:20 30.5 38.7 1024.6 6.4 NE 13.1 NE 0.0 510.4
15:25 31.2 37.3 1024.5 7.6 ENE 16.6 ENE 0.0 506.7
15:30 31.3 37.1 1024.5 7.5 NNE 16.6 ENE 0.0 479.6
15:35 30.7 37.8 1024.6 8.6 NNE 18.4 NNE 0.0 442.8
15:40 30.1 38.9 1024.6 9.9 NNE 16.6 NNE 0.0 408.1
15:45 29.7 39.7 1024.7 8.8 NNE 16.6 NNE 0.0 383.0
15:50 29.4 40.2 1024.7 11.0 NNE 17.3 NNE 0.0 362.4
15:55 29.0 41.0 1024.7 10.5 NNE 17.3 NNE 0.0 347.1
16:00 29.1 41.0 1024.7 8.6 NNE 15.9 NNE 0.0 333.0
16:05 29.1 40.9 1024.7 8.4 NNE 15.5 NNE 0.0 318.6
16:10 28.8 41.3 1024.7 8.8 NNE 12.7 NNE 0.0 301.4
16:15 28.7 41.5 1024.8 8.1 NNE 13.4 NNE 0.0 285.1
16:20 28.6 41.7 1024.8 6.2 NNE 11.0 NNE 0.0 270.5
16:25 28.7 41.6 1024.8 6.7 NE 14.1 NNE 0.0 256.5
16:30 28.6 41.7 1024.8 5.5 NNE 11.7 NNE 0.0 244.7
16:35 28.5 42.0 1024.8 5.6 NNE 11.0 NNE 0.0 230.9
16:40 28.4 42.1 1024.8 8.2 NNE 12.0 NNE 0.0 213.2
16:45 28.1 42.8 1024.8 6.6 NNE 13.1 NNE 0.0 189.8
16:50 27.9 43.3 1024.9 6.5 NNE 12.0 NNE 0.0 170.2
16:55 27.6 43.8 1024.8 7.9 NNE 12.4 NNE 0.0 160.0
17:00 27.4 44.3 1024.9 7.2 NNE 12.0 NNE 0.0 150.0
17:05 27.2 44.8 1024.9 8.0 NNE 13.4 NNE 0.0 136.3
17:10 27.1 45.0 1024.9 6.7 NNE 11.0 NE 0.0 114.9
17:15 26.8 45.6 1025.0 9.1 NNE 13.1 NNE 0.0 100.6
17:20 26.6 46.3 1024.9 8.2 NNE 11.3 NNE 0.0 94.8
17:25 26.4 46.5 1025.0 5.8 NNE 9.5 NNE 0.0 86.5
17:30 26.3 46.8 1025.0 5.9 NNE 9.9 NNE 0.0 78.2
17:35 26.3 46.9 1025.0 6.2 NNE 9.5 NE 0.0 68.2
17:40 26.2 47.0 1024.9 5.6 NNE 8.5 NNE 0.0 58.2
17:45 26.1 47.1 1024.9 0.1 N 2.8 N 0.0 48.0
17:50 26.2 47.1 1024.9 0.6 NNE 5.3 NNE 0.0 34.8
17:55 26.3 46.9 1024.9 0.5 NNE 5.0 NNE 0.0 23.4
18:00 26.4 46.8 1024.9 0.5 N 4.6 N 0.0 16.0
18:05 26.3 46.8 1024.9 1.7 NE 5.0 ENE 0.0 10.6
18:10 26.1 47.3 1024.9 2.3 NE 5.0 NE 0.0 6.3
18:15 25.7 48.1 1024.9 0.2 NE 4.6 NNE 0.0 3.8
18:20 25.7 48.2 1024.9 2.2 NE 5.0 NNE 0.0 1.8
18:25 25.6 48.3 1024.9 1.5 NE 4.2 NE 0.0 0.9
18:30 25.7 48.2 1024.9 0.0 SSW 1.1 SSW 0.0 0.5
18:35 25.8 48.2 1024.9 5.6 SW 8.5 SW 0.0 0.2
18:40 25.9 48.1 1024.9 7.1 SW 10.3 SW 0.0 0.1
18:45 25.8 48.3 1024.9 5.0 SW 7.4 SW 0.0 0.1
18:50 25.7 48.7 1024.9 5.9 SSW 10.3 SSW 0.0 0.1
18:55 25.6 48.9 1025.0 9.8 SW 12.4 SW 0.0 0.1
19:00 25.5 49.3 1025.0 8.8 SW 11.0 SW 0.0 0.1
19:05 25.4 49.8 1025.0 9.3 SW 12.7 SW 0.0 0.1
19:10 25.4 49.6 1025.0 8.7 SW 11.3 SW 0.0 0.1
19:15 25.6 49.1 1025.1 9.0 SW 12.4 SW 0.0 0.1
19:20 25.7 48.7 1025.1 10.7 SW 12.7 SW 0.0 0.1
19:25 25.6 48.8 1025.2 9.6 SW 11.7 SW 0.0 0.1
19:30 25.7 48.5 1025.2 9.5 SW 11.7 WSW 0.0 0.1
19:35 25.9 48.0 1025.2 9.0 SW 12.7 SW 0.0 0.1
19:40 25.7 48.6 1025.2 10.5 SW 14.1 SW 0.0 0.1
19:45 25.7 48.4 1025.2 8.1 SW 11.3 SW 0.0 0.1
19:50 26.1 46.2 1025.2 6.8 SW 10.3 SW 0.0 0.1
19:55 26.4 44.5 1025.2 8.6 WSW 14.1 WSW 0.0 0.1
20:00 26.8 42.9 1025.2 10.1 WSW 13.8 SW 0.0 0.1
20:05 26.6 43.5 1025.2 11.4 SW 14.5 WSW 0.0 0.1
20:10 26.4 44.4 1025.3 10.4 SW 13.1 WSW 0.0 0.1
20:15 26.1 45.6 1025.3 8.1 SW 11.3 SW 0.0 0.1
20:20 25.9 46.1 1025.3 8.2 SW 12.0 SW 0.0 0.1
20:25 26.0 46.3 1025.3 8.6 SW 10.6 SW 0.0 0.1
20:30 25.7 47.0 1025.3 9.1 SW 12.7 WSW 0.0 0.1
20:35 25.8 45.9 1025.3 11.2 SW 13.8 SW 0.0 0.1
20:40 25.7 46.1 1025.2 10.0 SW 13.4 SW 0.0 0.1
20:45 25.6 46.3 1025.2 9.9 SW 12.0 SW 0.0 0.1
Máxima 33.8 61.3 1025.6 15.6 SW 27.2 ENE 0.0 791.3
Mínima 20 30.4 1023.7
Total 0.0